User: anonymous   Login
Location: Newark
(3.0500°N, 36.0167°E)
Time: 22:31:42
(UTC+00:00)
Language:

Transit 4A - Orbit

View from above orbital plane
View from above orbital plane
View from above satellite
View from above satellite

Ground track
Ground track

The orbit data is extracted from the following two-line orbital elements,

1   116U 61015A   19230.49954546 -.00000081 +00000-0 -29733-5 0  9992
2   116 066.8076 231.2481 0080896 225.5489 133.8955 13.91756756949523
Epoch (UTC): 18 August 2019 11:59:20
Eccentricity: 0.0080896
inclination: 66.8076°
perigee height: 863 km
apogee height: 981 km
right ascension of ascending node: 231.2481°
argument of perigee: 225.5489°
revolutions per day: 13.91756756
mean anomaly at epoch: 133.8955°
orbit number at epoch: 94952

The dashed part of the orbit path shows where the satellite is in the earth's shadow,  

DLR